Location: Columbia, SC
(34.0000°N, 81.0300°W)
Time: 19:22:51
(UTC-05:00)

Tiangong 1 - Visible Passes

Search period start: 22 January 2018 00:00
Search period end: 01 February 2018 00:00
Orbit: 261 x 286 km, 42.8° (Epoch: 22 January)

Date Brightness Start Highest point End Pass type
(mag) Time Alt. Az. Time Alt. Az. Time Alt. Az.
22 Jan 3.4 19:30:47 10° WNW 19:31:25 16° WNW 19:31:25 16° WNW visible
23 Jan 3.1 19:30:00 10° WNW 19:31:08 22° W 19:31:08 22° W visible
24 Jan 3.2 19:29:19 10° W 19:30:55 19° SW 19:30:55 19° SW visible
